Date,TemperatureHighF,TemperatureAvgF,TemperatureLowF,DewpointHighF,DewpointAvgF,DewpointLowF,HumidityHigh,HumidityAvg,HumidityLow,PressureMaxIn,PressureMinIn,WindSpeedMaxMPH,WindSpeedAvgMPH,GustSpeedMaxMPH,PrecipitationSumIn
2013-1-1,39.5,35.9,27.0,29.1,26.3,15.7,74,68,59,29.94,29.78,16,2,16,0.00
2013-1-2,32.4,26.6,22.4,17.8,14.8,12.9,72,61,50,30.13,29.91,13,2,13,0.00
2013-1-3,32.5,26.2,19.9,19.2,15.8,13.9,82,65,48,30.13,30.02,14,1,14,0.00
2013-1-4,37.5,32.0,23.3,22.3,20.5,17.1,80,62,53,30.04,29.92,21,4,21,0.00
2013-1-5,40.8,32.7,27.3,24.0,20.7,17.7,79,62,48,30.25,29.97,13,2,13,0.00
2013-1-6,45.8,36.8,30.3,31.8,27.7,23.8,91,71,45,30.15,29.91,14,2,14,0.00
2013-1-7,45.7,36.8,27.2,30.8,26.5,22.7,84,67,45,30.33,29.99,14,1,14,0.00
2013-1-8,47.4,33.4,22.2,32.1,26.1,18.8,90,76,53,30.33,30.27,14,2,14,0.00
2013-1-9,29.0,27.2,25.4,27.0,24.8,23.4,92,91,87,30.31,30.27,2,0,2,0.00
2013-1-10,48.9,40.7,33.5,32.9,27.0,25.1,80,59,43,30.45,30.20,6,1,12,0.00
2013-1-11,44.3,38.9,30.4,42.6,33.2,24.6,98,80,68,30.44,29.99,9,1,9,0.00
2013-1-12,50.1,44.2,41.2,46.6,43.0,40.7,99,96,84,30.09,29.99,5,0,5,0.00
2013-1-13,47.6,45.2,42.5,47.4,45.0,41.8,100,99,98,30.06,29.90,7,0,7,0.00
2013-1-14,52.6,48.6,39.9,52.2,44.2,31.2,100,86,52,30.20,29.83,13,1,13,0.00
2013-1-15,39.9,36.5,33.5,36.9,30.0,26.5,92,77,68,30.26,30.09,8,1,8,0.00
2013-1-16,35.8,33.7,32.2,34.7,32.4,30.0,97,95,87,30.11,29.71,11,1,11,0.00
2013-1-17,40.9,37.7,35.2,35.0,29.6,26.9,95,73,61,30.01,29.85,15,1,15,0.00
2013-1-18,35.3,29.1,25.1,28.9,15.7,8.1,84,58,38,30.40,29.92,23,2,23,0.00
2013-1-19,52.8,38.4,25.3,28.9,23.9,13.1,77,57,34,30.33,29.83,20,3,20,0.00
2013-1-20,53.3,40.5,28.2,31.0,22.6,10.0,76,51,26,29.97,29.65,24,5,24,0.00
2013-1-21,31.0,26.5,20.5,19.6,12.7,8.7,71,56,43,30.01,29.79,14,1,14,0.00
2013-1-22,23.6,17.1,11.7,11.4,-1.1,-6.2,60,44,32,30.17,29.79,25,6,25,0.00
2013-1-23,18.8,13.0,9.0,4.7,-0.6,-4.7,78,54,41,30.21,30.09,19,3,19,0.00
2013-1-24,24.2,17.1,9.9,7.5,2.1,-3.6,79,54,30,30.38,30.04,23,2,23,0.00
2013-1-25,21.3,15.3,7.7,13.4,3.8,-2.8,85,62,40,30.38,30.00,10,1,10,0.00
2013-1-26,26.9,17.7,7.0,12.2,7.9,2.9,86,67,45,30.33,29.99,19,1,19,0.00
2013-1-27,34.1,20.7,8.4,16.8,10.8,3.5,82,66,44,30.49,30.32,11,1,11,0.00
2013-1-28,34.0,29.5,19.9,33.2,26.5,14.0,97,88,77,30.42,29.94,14,1,14,0.00
2013-1-29,48.9,41.9,32.8,45.5,39.9,32.0,98,93,84,30.06,29.93,8,1,8,0.00
2013-1-30,65.8,52.2,41.6,58.5,50.4,41.1,100,94,76,29.95,29.22,28,2,28,0.00
2013-1-31,61.6,41.8,27.5,59.8,29.9,10.5,99,64,43,29.75,28.98,32,8,32,0.00
2013-2-1,29.5,26.0,20.2,17.6,9.3,3.9,73,49,36,30.20,29.74,27,5,27,0.00
2013-2-2,26.6,21.6,14.8,20.5,9.5,3.9,88,60,40,30.23,29.95,18,3,18,0.00
2013-2-3,29.5,24.5,18.4,23.8,19.5,12.5,90,81,58,29.95,29.73,25,1,25,0.00
2013-2-4,30.0,24.6,19.9,21.0,11.2,8.0,78,57,44,29.95,29.77,20,4,25,0.00
2013-2-5,31.2,28.9,26.1,28.0,24.5,20.5,90,84,78,29.87,29.79,6,0,6,0.00
2013-2-6,39.2,30.4,22.7,27.8,21.8,14.3,93,72,49,30.27,29.84,18,2,18,0.00
2013-2-7,33.4,29.2,19.7,20.8,16.5,12.3,80,59,44,30.40,30.18,12,2,12,0.00
2013-2-8,34.6,32.9,30.3,32.8,29.7,20.3,98,88,66,30.19,29.61,14,3,15,0.00
2013-2-9,32.1,26.5,19.1,30.8,16.0,7.3,95,66,45,30.31,29.70,22,4,22,0.00
2013-2-10,41.1,26.7,12.1,20.3,11.3,6.0,78,54,27,30.41,30.22,7,0,7,0.00
2013-2-11,46.7,38.0,30.6,46.4,35.4,19.1,100,91,61,30.22,29.58,11,1,11,0.00
2013-2-12,44.2,39.0,28.5,38.3,25.2,21.7,93,58,47,29.91,29.68,26,4,26,0.00
2013-2-13,43.1,33.3,23.3,31.4,25.6,19.7,94,75,52,29.88,29.59,8,1,8,0.00
2013-2-14,45.4,33.0,28.1,33.9,29.7,24.0,97,89,53,29.92,29.63,11,0,11,0.00
2013-2-15,55.6,40.6,28.2,36.0,30.1,24.6,92,69,42,29.93,29.83,15,2,15,0.00
2013-2-16,35.9,32.9,28.7,32.7,24.9,10.1,95,73,45,29.90,29.69,15,2,15,0.00
2013-2-17,30.9,25.8,19.2,12.9,7.3,0.1,54,45,37,30.00,29.66,27,6,27,0.00
2013-2-18,35.2,25.6,17.8,13.6,7.8,1.3,56,47,33,30.24,30.00,24,4,24,0.00
2013-2-19,42.8,34.8,24.4,40.5,27.5,11.6,94,75,51,30.10,29.61,19,2,19,0.00
2013-2-20,34.7,28.2,23.6,23.9,13.4,9.0,65,53,44,29.96,29.69,22,6,22,0.00
2013-2-21,34.9,27.7,23.0,17.2,13.3,9.3,64,55,45,30.23,29.95,21,5,21,0.00
2013-2-22,36.9,29.8,21.1,28.0,19.8,12.7,80,66,55,30.32,30.15,13,2,13,0.00
2013-2-23,43.3,37.9,32.5,42.8,36.8,27.9,98,96,80,30.17,29.72,14,1,14,0.00
2013-2-24,45.1,37.2,29.5,38.9,29.6,18.5,98,76,53,29.95,29.69,21,2,21,0.00
2013-2-25,43.2,34.4,25.1,29.0,23.6,18.2,78,65,48,30.15,29.94,11,1,12,0.00
2013-2-26,44.5,34.7,24.8,34.7,28.1,21.2,93,78,57,30.17,29.70,23,4,23,0.00
2013-2-27,49.5,42.9,36.6,45.7,38.6,33.2,98,85,68,29.70,29.42,24,4,24,0.00
2013-2-28,44.8,40.1,31.9,35.5,31.4,24.6,86,72,47,29.58,29.49,15,2,15,0.00
2013-3-1,43.2,36.5,29.5,31.8,27.7,23.9,90,71,51,29.73,29.56,15,2,15,0.00
2013-3-2,39.1,33.9,30.0,24.8,22.2,19.0,68,62,53,29.74,29.65,15,3,15,0.00
2013-3-3,36.5,31.0,25.1,20.4,17.9,15.2,68,58,48,29.72,29.64,16,3,16,0.00
2013-3-4,40.1,32.9,28.4,21.9,18.5,14.4,64,55,45,29.88,29.72,20,5,22,0.00
2013-3-5,47.7,36.9,30.0,27.6,23.8,20.5,76,59,43,29.95,29.84,12,2,12,0.00
2013-3-6,40.6,37.3,32.8,34.5,30.6,25.8,87,77,64,29.86,29.68,32,6,32,0.00
2013-3-7,46.7,38.9,34.7,29.1,26.3,23.8,78,61,48,30.01,29.85,20,5,20,0.00
2013-3-8,43.2,35.2,29.4,30.8,26.8,22.6,88,72,57,30.15,29.96,21,5,21,0.00
2013-3-9,61.2,43.3,29.1,26.7,21.1,14.3,69,45,19,30.23,30.12,12,1,12,0.00
2013-3-10,57.2,42.0,27.6,35.8,27.6,14.9,83,59,33,30.28,30.16,11,1,11,0.00
2013-3-11,59.3,47.2,36.8,47.4,40.3,32.3,97,79,48,30.21,29.96,13,1,13,0.00
2013-3-12,56.3,51.1,38.0,55.8,47.5,32.9,98,88,70,29.96,29.59,22,3,22,0.00
2013-3-13,48.2,39.3,31.0,35.1,28.0,21.8,85,65,44,29.86,29.75,22,3,22,0.00
2013-3-14,41.5,33.9,27.5,22.2,15.8,9.6,80,48,30,29.92,29.83,27,5,27,0.00
2013-3-15,50.2,38.4,24.7,31.5,20.6,10.7,63,49,39,29.94,29.64,22,4,22,0.00
2013-3-16,45.1,35.6,31.8,30.5,28.0,21.7,92,75,54,29.85,29.67,11,1,11,0.00
2013-3-17,38.2,32.3,28.2,30.1,21.9,16.9,92,66,49,30.21,29.83,11,1,11,0.00
2013-3-18,37.6,31.2,26.1,33.1,21.9,10.7,95,70,48,30.28,29.82,19,4,20,0.00
2013-3-19,50.1,39.3,34.0,38.2,31.1,17.7,97,76,35,29.84,29.61,23,3,23,0.00
2013-3-20,46.4,37.4,29.3,23.4,18.8,15.6,61,47,32,29.85,29.70,24,4,24,0.00
2013-3-21,37.5,32.2,27.0,27.8,18.8,9.9,89,60,35,29.75,29.59,16,2,16,0.00
2013-3-22,41.2,32.6,25.8,23.2,18.4,11.7,70,56,44,29.84,29.69,24,5,24,0.00
2013-3-23,47.6,37.4,29.8,25.1,19.7,16.8,62,49,34,29.87,29.78,20,4,20,0.00
2013-3-24,46.5,37.3,26.0,25.6,20.7,16.7,76,52,34,29.89,29.59,14,1,14,0.00
2013-3-25,37.2,35.1,32.8,33.7,30.1,24.8,93,83,61,29.60,29.39,20,2,20,0.00
2013-3-26,51.0,40.3,33.4,34.5,31.6,24.9,95,74,38,29.82,29.55,16,2,16,0.00
2013-3-27,50.7,39.8,28.8,32.6,29.0,23.8,92,68,37,29.95,29.82,20,2,20,0.00
2013-3-28,47.7,40.4,29.3,31.4,27.8,23.8,84,61,44,30.06,29.91,18,2,18,0.00
2013-3-29,52.2,43.4,30.6,31.6,27.9,24.2,79,55,40,30.09,30.01,16,2,16,0.00
2013-3-30,57.5,43.4,27.6,31.5,25.9,20.5,87,55,27,30.11,30.01,15,2,15,0.00
2013-3-31,56.2,44.8,32.1,46.6,35.1,24.1,98,72,37,30.04,29.61,16,2,16,0.00
2013-4-1,61.2,47.5,35.6,46.6,35.6,14.4,98,67,33,29.85,29.58,24,4,24,0.00
2013-4-2,43.6,35.9,26.7,19.1,14.0,10.2,59,41,27,30.03,29.85,25,4,25,0.00
2013-4-3,47.0,35.9,24.5,19.3,13.6,8.1,63,41,26,30.24,30.03,21,3,21,0.00
2013-4-4,52.5,38.9,25.4,27.3,18.6,10.8,64,45,28,30.33,30.00,12,2,12,0.00
2013-4-5,62.3,48.7,38.0,32.7,26.0,16.9,77,45,22,30.00,29.67,19,3,19,0.00
2013-4-6,52.5,41.6,30.7,25.2,18.9,14.3,59,41,23,30.23,29.93,13,2,13,0.00
2013-4-7,63.9,50.1,37.8,42.8,34.1,24.4,71,55,41,30.21,29.90,21,3,21,0.00
2013-4-8,76.0,62.1,46.5,49.9,45.0,40.7,83,56,34,29.98,29.86,12,1,12,0.00
2013-4-9,81.4,70.2,55.7,53.5,49.2,42.5,79,50,26,29.91,29.80,21,3,23,0.00
2013-4-10,85.5,71.0,58.3,60.7,55.2,50.7,96,61,36,29.85,29.67,24,2,24,0.00
2013-4-11,63.4,58.1,48.6,60.7,54.0,42.7,100,87,69,29.88,29.69,18,3,20,0.00
2013-4-12,48.6,43.9,42.1,44.0,41.9,40.7,100,93,80,29.86,29.60,26,6,26,0.00
2013-4-13,58.3,49.0,37.3,44.3,37.5,33.1,98,68,40,29.89,29.66,16,2,16,0.00
2013-4-14,60.5,50.5,37.6,38.9,33.7,25.9,87,55,32,30.09,29.89,20,2,20,0.00
2013-4-15,60.7,51.4,44.6,43.7,36.3,29.3,70,56,47,30.25,30.08,13,3,13,0.00
2013-4-16,70.8,58.9,45.5,56.5,49.2,40.6,86,71,58,30.25,30.03,20,3,20,0.00
2013-4-17,73.0,61.4,54.5,56.3,46.4,32.9,93,62,24,30.19,30.00,15,2,15,0.00
2013-4-18,60.5,55.0,49.8,54.9,48.9,41.1,94,80,66,30.20,29.96,14,2,14,0.00
2013-4-19,77.4,65.5,53.6,65.6,60.2,51.3,96,84,60,29.97,29.51,23,4,23,0.00
2013-4-20,56.9,49.9,42.8,51.3,33.5,23.5,92,56,32,30.24,29.63,23,4,23,0.02
2013-4-21,54.5,42.0,32.4,30.2,24.0,19.8,65,49,30,30.53,30.23,12,2,13,0.00
2013-4-22,52.8,43.9,31.9,36.7,31.6,27.6,84,63,41,30.53,30.36,22,4,22,0.00
2013-4-23,49.9,45.1,39.8,42.0,37.3,32.0,84,74,65,30.37,30.05,16,2,16,0.00
2013-4-24,71.6,56.0,36.6,55.4,46.7,34.5,95,73,53,30.05,29.72,20,2,20,0.00
2013-4-25,63.4,52.3,42.1,56.1,32.3,23.8,79,48,25,30.19,29.78,26,3,26,0.00
2013-4-26,63.9,51.2,37.9,38.2,32.2,25.2,81,52,25,30.34,30.19,14,2,14,0.00
2013-4-27,69.4,54.2,37.0,39.9,33.2,29.4,84,48,26,30.35,30.19,10,1,10,0.00
2013-4-28,69.4,56.9,40.2,44.7,36.7,29.4,87,50,27,30.22,30.09,15,2,15,0.00
2013-4-29,55.9,53.3,49.8,55.3,51.0,42.8,98,92,70,30.12,30.03,14,2,14,0.36
2013-4-30,68.1,57.2,45.8,53.0,44.6,30.0,98,67,31,30.23,30.08,14,3,14,0.08
2013-5-1,69.1,54.0,36.9,42.5,35.9,28.7,87,55,25,30.38,30.23,15,2,15,0.00
2013-5-2,72.5,56.4,38.2,47.1,41.1,36.4,97,61,30,30.37,30.23,11,1,11,0.00
2013-5-3,64.8,54.9,44.5,42.0,38.9,33.8,83,57,32,30.33,30.24,16,2,16,0.00
2013-5-4,69.4,54.7,38.6,47.4,41.1,37.0,96,64,34,30.28,30.11,13,2,13,0.00
2013-5-5,65.3,52.0,39.9,44.6,40.2,36.6,91,66,39,30.19,30.09,14,2,14,0.00
2013-5-6,69.1,54.4,41.3,54.0,47.4,37.7,94,79,55,30.15,30.03,13,2,13,0.00
2013-5-7,71.6,60.4,51.3,61.9,55.0,49.5,97,83,61,30.05,29.96,14,3,14,0.20
2013-5-8,70.9,61.4,57.3,62.4,58.4,53.8,100,90,68,29.96,29.83,13,2,13,0.02
2013-5-9,70.8,60.8,55.3,58.5,55.1,53.0,98,83,55,29.89,29.82,11,1,11,0.00
2013-5-10,81.6,64.0,51.4,61.7,55.2,50.3,99,77,35,29.92,29.80,15,1,15,0.02
2013-5-11,72.7,63.9,59.8,65.6,61.5,58.3,100,92,71,29.83,29.62,23,1,23,0.54
2013-5-12,63.4,57.2,45.2,58.7,41.6,24.5,96,60,27,29.89,29.62,23,3,23,0.06
2013-5-13,55.3,46.1,36.3,37.2,30.8,22.0,91,58,29,30.04,29.89,18,2,18,0.00
2013-5-14,61.5,48.0,32.7,38.2,30.9,24.8,93,57,27,30.08,29.95,13,2,13,0.00
2013-5-15,72.7,59.9,44.9,57.6,49.3,35.7,86,69,54,29.99,29.62,14,1,14,0.00
2013-5-16,80.3,66.4,55.3,64.7,58.3,52.6,97,77,46,29.77,29.63,11,1,11,0.20
2013-5-17,75.6,62.3,52.5,52.7,44.7,38.5,85,55,27,30.11,29.77,12,1,12,0.00
2013-5-18,67.1,59.1,52.6,54.9,51.2,44.8,91,76,58,30.19,30.10,12,1,12,0.00
2013-5-19,61.5,58.4,55.9,60.9,57.7,54.3,100,97,91,30.18,30.06,11,2,11,0.00
2013-5-20,79.4,66.9,57.0,68.2,62.5,56.7,99,87,63,30.07,29.88,10,1,10,0.00
2013-5-21,84.5,73.2,60.4,70.9,66.3,59.5,99,81,58,29.89,29.77,13,1,13,0.00
2013-5-22,88.4,75.5,66.0,73.1,68.3,63.7,98,81,48,29.83,29.73,13,1,13,0.00
2013-5-23,77.7,71.4,63.7,71.2,67.6,61.2,95,88,70,29.80,29.67,15,2,15,1.28
2013-5-24,63.4,53.9,45.4,62.8,49.6,36.6,99,86,67,29.95,29.62,21,2,21,0.30
2013-5-25,61.8,52.5,45.5,40.1,36.8,31.7,79,57,35,29.98,29.90,23,3,24,0.02
2013-5-26,70.8,56.8,43.6,42.8,37.0,32.2,74,50,25,30.13,29.94,22,2,22,0.00
2013-5-27,73.3,57.6,38.5,46.9,40.9,34.5,95,59,29,30.17,30.06,12,1,12,0.00
2013-5-28,63.9,57.7,48.9,62.4,54.8,45.8,98,90,75,30.11,29.99,7,0,7,0.56
2013-5-29,89.7,72.2,58.3,71.2,63.1,57.8,99,77,40,30.00,29.89,13,1,13,0.02
2013-5-30,92.1,79.2,66.3,67.8,64.8,60.9,94,65,36,30.06,29.95,8,1,13,0.00
2013-5-31,92.9,76.9,65.3,70.3,64.4,56.8,96,69,33,30.05,29.93,13,1,13,0.00
2013-6-1,90.5,78.7,64.8,71.0,66.8,62.7,97,69,46,29.94,29.83,13,2,13,0.00
2013-6-2,84.7,78.0,70.6,71.9,67.8,65.5,93,72,57,29.83,29.71,18,3,18,0.08
2013-6-3,81.8,72.6,65.6,70.0,65.1,54.8,98,79,51,29.81,29.72,11,1,12,0.58
2013-6-4,78.6,65.2,53.1,55.0,46.8,40.2,76,54,28,30.03,29.81,12,1,12,0.00
2013-6-5,80.9,64.7,47.7,53.1,47.4,42.9,88,57,30,30.12,29.99,9,1,9,0.00
2013-6-6,75.1,62.4,52.8,62.3,55.6,49.7,97,80,44,30.04,29.88,14,2,14,0.54
2013-6-7,64.5,61.7,59.5,64.2,61.3,58.7,99,99,96,29.87,29.52,23,3,23,2.32
2013-6-8,78.3,66.8,58.6,65.2,61.2,58.3,99,83,59,29.99,29.52,13,1,13,0.02
2013-6-9,84.7,69.6,55.4,64.0,59.4,54.6,98,74,43,30.10,29.99,13,1,14,0.00
2013-6-10,71.5,67.4,64.5,71.2,65.7,62.0,100,94,86,30.05,29.69,11,1,11,4.60
2013-6-11,80.9,72.7,65.2,70.3,65.0,59.1,100,78,59,29.69,29.60,20,3,20,0.04
2013-6-12,83.4,71.8,63.1,61.8,58.9,54.3,85,66,41,29.75,29.68,16,2,16,0.00
2013-6-13,78.3,66.5,58.3,69.8,61.8,55.8,97,85,72,29.75,29.32,13,1,13,1.52
2013-6-14,78.5,63.2,54.2,58.7,54.8,50.4,95,77,45,29.85,29.44,19,2,19,0.16
2013-6-15,81.2,67.7,53.5,61.4,56.4,52.4,97,71,39,29.95,29.84,16,1,16,0.00
2013-6-16,83.2,69.2,56.9,67.4,60.1,54.3,94,75,45,29.92,29.73,22,2,22,0.00
2013-6-17,86.3,73.9,63.5,68.9,65.0,62.0,98,76,50,29.84,29.76,14,1,14,0.00
2013-6-18,79.4,68.3,63.5,71.0,65.8,62.3,97,92,73,29.83,29.72,10,0,10,0.28
2013-6-19,81.2,67.3,57.5,62.5,55.0,48.7,97,68,34,30.07,29.79,13,1,13,0.02
2013-6-20,81.1,67.9,53.2,60.9,55.3,48.5,98,67,44,30.19,30.07,12,1,12,0.00
2013-6-21,84.7,69.9,53.8,59.5,54.4,49.1,90,61,37,30.22,30.15,10,1,10,0.00
2013-6-22,85.5,71.7,55.6,66.5,60.9,53.2,95,71,48,30.18,30.03,12,1,12,0.00
2013-6-23,87.2,74.9,61.8,73.0,67.1,60.3,97,78,55,30.11,29.97,14,1,14,0.00
2013-6-24,90.5,78.0,69.3,72.9,68.9,62.4,97,76,46,30.00,29.90,18,1,18,0.00
2013-6-25,90.7,76.0,65.0,75.6,67.5,62.9,96,77,49,29.93,29.76,20,1,20,0.18
2013-6-26,90.5,74.7,66.9,75.1,67.7,63.4,97,80,51,29.80,29.70,11,1,11,1.14
2013-6-27,90.1,76.0,69.4,74.5,70.9,68.3,99,86,55,29.75,29.47,14,1,15,1.26
2013-6-28,85.7,75.2,68.3,71.6,68.7,63.6,98,82,57,29.49,29.40,13,2,13,0.16
2013-6-29,87.0,74.8,65.5,69.5,65.5,60.1,99,76,42,29.61,29.40,10,1,14,0.00
2013-6-30,83.4,74.6,67.1,74.5,69.7,63.8,94,85,67,29.81,29.61,12,0,12,0.04
2013-7-1,78.3,74.1,69.1,74.7,72.0,68.2,99,93,81,29.94,29.79,11,1,11,3.86
2013-7-2,84.9,76.9,73.2,73.8,71.5,69.2,93,84,65,30.09,29.93,13,2,13,0.02
2013-7-3,86.3,77.1,70.9,74.8,71.3,68.2,95,83,66,30.16,30.09,10,1,11,0.00
2013-7-4,88.8,79.9,73.9,75.1,72.1,69.4,94,78,58,30.17,30.08,15,2,15,0.00
2013-7-5,89.9,81.3,72.1,74.9,71.7,67.2,95,74,52,30.14,30.03,14,2,14,0.00
2013-7-6,93.2,82.6,73.3,75.1,72.4,70.0,96,73,50,30.08,29.96,11,1,11,0.00
2013-7-7,91.0,80.0,70.4,75.8,71.9,68.4,96,78,56,30.01,29.88,18,2,18,0.16
2013-7-8,86.7,74.8,67.8,73.3,68.7,66.4,98,83,53,29.99,29.92,10,1,13,0.02
2013-7-9,85.7,76.4,68.4,73.8,70.3,67.5,98,82,63,30.00,29.92,11,1,11,0.00
2013-7-10,86.5,78.9,71.8,74.3,72.2,69.4,97,81,61,29.94,29.74,14,2,14,0.00
2013-7-11,85.1,77.6,71.5,73.9,69.4,61.4,93,77,58,29.84,29.73,9,1,9,0.00
2013-7-12,75.4,71.4,68.4,69.7,65.0,59.4,98,81,66,29.96,29.83,13,2,13,2.02
2013-7-13,90.3,75.9,68.4,75.6,71.9,67.8,99,89,60,30.22,29.96,8,1,11,1.24
2013-7-14,91.4,79.6,71.1,76.2,72.5,69.0,99,81,51,30.27,30.18,12,0,12,0.00
2013-7-15,94.5,81.5,69.4,77.6,72.5,68.1,98,76,50,30.20,30.07,9,1,9,0.00
2013-7-16,95.1,82.3,72.0,75.8,71.2,68.1,95,71,48,30.14,30.06,7,1,11,0.00
2013-7-17,97.1,82.8,70.9,73.3,70.6,66.9,94,70,41,30.12,30.00,8,0,8,0.00
2013-7-18,98.0,84.4,73.9,79.3,73.9,70.1,92,73,43,30.01,29.90,10,0,10,0.00
2013-7-19,94.0,84.9,76.5,80.2,76.5,73.7,97,77,54,29.92,29.74,13,2,13,0.02
2013-7-20,90.7,80.6,72.0,76.4,71.9,69.5,94,76,53,29.77,29.68,19,2,19,0.02
2013-7-21,88.8,78.5,71.8,74.9,70.7,68.3,92,78,55,29.87,29.76,9,1,9,0.00
2013-7-22,85.9,76.3,70.8,76.2,71.9,69.0,98,87,68,29.87,29.69,11,1,11,1.46
2013-7-23,86.1,76.1,69.9,77.6,71.0,67.8,99,86,57,29.70,29.51,11,1,15,2.08
2013-7-24,81.8,72.6,63.5,68.8,64.1,52.0,98,76,51,29.86,29.56,11,1,11,0.02
2013-7-25,72.0,64.3,57.6,60.5,55.9,51.0,88,74,64,29.97,29.85,12,1,12,0.00
2013-7-26,83.6,70.3,59.3,62.4,59.1,55.8,95,70,41,29.98,29.93,11,1,11,0.00
2013-7-27,85.5,71.9,58.0,69.1,62.4,56.6,99,75,50,29.97,29.84,10,1,11,0.00
2013-7-28,82.2,71.7,65.5,74.0,67.7,60.9,97,87,69,29.89,29.80,11,0,11,0.60
2013-7-29,82.2,71.4,61.2,67.3,61.1,52.4,99,74,39,30.04,29.88,11,1,12,0.06
2013-7-30,81.4,68.6,56.5,62.0,58.1,54.4,96,72,44,30.11,30.04,13,1,13,0.00
2013-7-31,83.0,70.4,56.6,65.2,60.7,55.8,99,74,44,30.08,29.94,8,0,8,0.00
2013-8-1,73.0,68.8,65.8,71.9,66.4,61.4,99,92,79,29.95,29.74,8,0,12,1.92
2013-8-2,83.4,72.8,63.2,69.2,64.8,60.2,99,79,47,29.86,29.74,13,1,13,0.02
2013-8-3,76.8,68.6,63.4,68.2,64.3,61.3,95,86,68,29.86,29.80,11,0,11,0.08
2013-8-4,79.8,68.8,59.3,63.3,58.8,54.0,99,73,43,29.92,29.79,12,1,12,0.00
2013-8-5,79.0,65.9,54.1,57.9,53.9,49.4,93,68,39,30.01,29.91,9,0,9,0.00
2013-8-6,77.9,65.5,53.5,64.4,58.3,52.2,98,79,52,30.02,29.95,10,1,10,0.00
2013-8-7,74.6,69.5,63.4,69.1,66.2,61.3,98,90,75,30.03,29.96,9,0,9,0.10
2013-8-8,84.9,75.8,68.3,76.6,70.9,67.4,98,86,65,29.97,29.89,14,1,14,0.16
2013-8-9,83.2,77.2,73.7,77.8,73.5,71.1,95,89,73,29.92,29.74,15,1,15,0.38
2013-8-10,84.7,74.5,66.1,72.8,66.5,61.6,98,78,49,29.97,29.81,4,1,13,0.00
2013-8-11,85.5,71.8,58.7,67.6,61.6,54.5,95,73,47,30.05,29.93,9,0,9,0.00
2013-8-12,87.0,74.4,66.9,70.1,66.2,61.5,97,78,44,29.94,29.83,9,0,9,0.00
2013-8-13,83.6,71.7,64.8,71.5,67.5,63.9,99,88,60,29.84,29.63,10,0,10,3.02
2013-8-14,74.4,64.9,55.1,67.0,53.4,47.4,93,68,48,29.99,29.69,14,2,16,0.00
2013-8-15,79.9,63.4,49.5,56.3,52.1,47.8,98,71,36,30.08,29.99,8,0,8,0.00
2013-8-16,81.8,65.4,50.4,59.8,54.2,49.3,98,71,34,30.12,30.04,8,0,8,0.00
2013-8-17,83.2,67.4,53.6,62.7,57.0,52.2,98,73,37,30.18,30.12,7,0,7,0.00
2013-8-18,74.6,66.5,61.3,63.9,60.9,57.7,94,83,59,30.17,30.07,7,0,7,0.02
2013-8-19,75.4,67.3,60.1,67.2,62.6,59.5,98,86,66,30.07,29.98,9,1,9,0.02
2013-8-20,87.6,72.3,61.3,70.5,65.1,60.7,99,81,47,30.06,29.99,9,0,9,0.00
2013-8-21,89.5,74.5,60.9,70.2,65.0,58.4,99,76,42,30.11,29.97,10,0,10,0.00
2013-8-22,80.9,74.6,69.1,73.7,70.7,67.4,96,88,70,29.99,29.81,12,0,12,0.44
2013-8-23,77.6,69.5,62.1,67.6,62.9,56.2,98,80,62,30.02,29.83,8,0,8,0.00
2013-8-24,83.8,68.3,56.5,59.1,54.6,47.8,89,64,33,30.26,30.02,10,1,10,0.00
2013-8-25,82.2,65.3,51.4,60.7,55.4,50.0,98,74,41,30.33,30.17,10,1,10,0.00
2013-8-26,85.1,71.8,59.8,67.7,61.6,55.0,90,71,51,30.17,29.85,13,1,13,0.08
2013-8-27,90.5,76.0,66.3,70.8,67.4,65.1,98,77,46,29.85,29.78,9,0,9,0.04
2013-8-28,73.5,69.9,66.6,72.9,69.1,65.1,99,97,91,29.82,29.75,6,0,6,1.40
2013-8-29,81.2,72.8,68.6,72.2,69.2,65.4,99,89,66,29.94,29.79,9,0,9,0.00
2013-8-30,82.8,73.4,65.8,72.3,68.1,64.0,95,84,68,29.95,29.79,11,1,11,0.00
2013-8-31,85.9,76.8,70.1,74.4,71.0,68.0,96,83,66,29.80,29.71,13,1,13,0.00
2013-9-1,90.1,76.6,69.9,77.3,71.4,68.4,99,85,55,29.78,29.69,9,0,9,1.94
2013-9-2,85.1,74.6,70.4,75.7,71.5,68.6,99,91,63,29.72,29.62,7,0,7,0.04
2013-9-3,82.0,72.1,62.4,69.9,63.5,55.9,99,77,45,29.83,29.63,12,1,12,0.00
2013-9-4,80.7,66.8,56.3,61.0,57.7,55.1,98,75,46,29.96,29.83,12,1,14,0.00
2013-9-5,77.9,64.9,54.5,64.1,55.4,46.2,98,74,39,30.07,29.88,14,1,14,0.00
2013-9-6,73.5,58.8,48.2,48.7,45.4,40.0,90,64,34,30.18,30.06,9,1,9,0.00
2013-9-7,79.9,60.6,44.8,56.7,49.2,43.6,98,71,36,30.06,29.86,10,1,10,0.00
2013-9-8,82.2,68.5,56.7,67.2,58.3,45.9,94,71,48,30.00,29.77,11,1,14,0.00
2013-9-9,75.8,62.4,46.2,61.2,53.2,43.4,93,73,51,30.14,30.00,11,1,11,0.00
2013-9-10,87.4,75.7,66.9,74.3,69.0,61.6,91,80,62,30.09,29.98,11,1,11,0.00
2013-9-11,92.7,79.7,70.6,77.5,72.3,69.2,98,80,55,30.05,29.91,13,1,13,0.00
2013-9-12,87.4,75.5,67.8,74.7,70.2,66.6,97,85,61,29.92,29.63,14,1,14,0.24
2013-9-13,76.0,66.5,55.7,67.7,59.0,47.9,99,79,50,29.82,29.57,16,1,16,0.04
2013-9-14,65.3,55.2,45.2,50.0,46.6,42.8,93,74,54,30.08,29.81,13,1,13,0.00
2013-9-15,74.4,56.3,41.5,53.7,47.7,40.5,98,76,41,30.15,30.01,11,1,11,0.00
2013-9-16,70.9,60.5,54.4,59.9,54.3,47.1,97,82,52,30.17,29.95,12,0,12,0.12
2013-9-17,67.6,53.2,42.6,47.2,42.0,38.2,92,68,38,30.35,30.17,12,1,12,0.00
2013-9-18,74.2,53.5,38.6,50.0,43.1,37.0,98,72,32,30.27,30.11,8,0,8,0.00
2013-9-19,78.5,58.1,42.6,54.8,49.0,41.5,99,76,39,30.12,30.00,10,0,10,0.00
2013-9-20,70.6,53.0,47.4,60.4,51.0,46.3,99,93,69,30.01,29.99,5,0,5,0.00
2013-9-21,79.2,64.8,49.6,65.9,57.5,48.4,99,80,43,29.91,29.60,15,1,15,1.14
2013-9-22,67.8,59.9,50.5,61.2,51.2,42.2,98,75,45,29.85,29.59,13,1,13,0.44
2013-9-23,66.8,54.2,45.1,48.1,42.9,39.7,89,67,45,29.98,29.85,13,1,13,0.00
2013-9-24,75.3,54.5,39.5,51.1,44.6,37.9,96,73,35,30.00,29.83,8,1,11,0.00
2013-9-25,75.4,56.2,42.8,51.2,46.0,40.9,96,72,37,29.89,29.80,8,0,8,0.00
2013-9-26,73.5,58.3,45.2,58.1,52.1,44.1,99,82,51,30.01,29.85,9,0,9,0.00
2013-9-27,70.6,59.5,50.1,55.9,52.7,48.2,97,80,51,30.18,30.01,8,0,8,0.00
2013-9-28,74.7,60.6,50.2,55.7,51.4,46.7,96,75,40,30.24,30.15,11,1,12,0.00
2013-9-29,74.6,57.7,45.2,57.5,50.5,44.1,99,80,47,30.15,30.00,10,1,10,0.00
2013-9-30,75.6,57.8,44.2,55.6,49.8,43.1,99,78,41,30.00,29.90,9,0,9,0.00
2013-10-1,81.1,62.8,49.5,61.8,54.7,48.4,98,78,46,29.95,29.85,12,1,12,0.00
2013-10-2,85.1,66.8,53.2,63.0,58.3,52.2,99,77,44,29.95,29.86,14,1,14,0.00
2013-10-3,82.0,67.4,54.8,63.0,58.9,53.6,99,77,45,30.04,29.94,0,0,0,0.00
2013-10-4,85.3,70.1,58.4,66.6,62.6,57.3,99,80,50,29.99,29.90,11,0,11,0.00
2013-10-5,87.2,73.0,62.1,67.7,64.4,60.7,98,77,47,30.00,29.92,8,0,8,0.00
2013-10-6,78.3,68.6,64.5,68.4,65.5,63.2,100,91,70,29.98,29.89,8,2,12,0.02
2013-10-7,77.6,64.6,52.0,70.4,62.5,47.3,99,93,76,29.93,29.67,24,1,24,1.60
2013-10-8,67.3,54.0,43.9,49.9,46.4,42.8,98,78,46,30.24,29.93,13,1,13,0.00
2013-10-9,60.9,53.7,46.5,48.8,45.5,40.5,92,74,62,30.29,30.16,16,2,16,0.00
2013-10-10,58.9,55.0,51.1,56.1,52.0,46.7,96,90,76,30.17,29.92,12,2,12,0.50
2013-10-11,63.1,60.0,57.5,61.2,57.8,54.1,98,93,84,29.97,29.89,15,2,15,1.66
2013-10-12,71.1,62.9,57.5,58.1,52.1,41.5,87,69,45,30.14,29.95,15,3,15,0.00
2013-10-13,68.3,59.4,49.1,53.4,50.1,46.6,92,72,48,30.28,30.14,16,3,16,0.00
2013-10-14,72.7,54.9,43.8,52.2,47.9,42.5,99,80,43,30.27,30.15,8,0,8,0.00
2013-10-15,74.0,55.8,43.3,55.6,47.6,42.0,99,77,42,30.17,30.01,10,1,10,0.00
2013-10-16,66.6,57.4,47.7,58.3,54.1,44.6,96,89,73,30.02,29.83,8,0,8,0.00
2013-10-17,74.2,64.6,57.2,62.7,60.4,55.8,97,87,62,29.83,29.62,15,1,15,0.12
2013-10-18,65.5,56.4,43.2,59.7,44.7,40.2,90,66,44,29.92,29.63,23,2,23,0.00
2013-10-19,64.2,51.0,39.1,53.5,44.8,37.8,98,81,47,29.92,29.68,12,0,12,0.12
2013-10-20,63.1,50.5,39.9,51.5,39.1,34.5,95,67,37,29.99,29.70,15,2,16,0.00
2013-10-21,67.6,50.3,35.6,45.5,38.8,34.3,98,69,33,30.07,29.88,13,1,13,0.00
2013-10-22,62.4,51.5,43.2,50.9,44.2,31.2,97,77,58,29.89,29.70,13,1,13,0.00
2013-10-23,57.3,45.5,37.6,40.8,35.6,31.2,87,69,50,29.74,29.54,11,1,11,0.00
2013-10-24,52.2,40.4,31.0,34.9,30.4,26.2,94,70,37,29.97,29.71,21,2,21,0.00
2013-10-25,55.3,39.9,29.5,35.5,30.5,26.4,92,71,39,30.17,29.97,19,1,19,0.00
2013-10-26,55.9,41.4,27.6,33.7,29.6,25.8,95,67,37,30.17,29.82,23,2,23,0.00
2013-10-27,57.0,45.9,34.3,35.8,31.4,28.8,84,58,39,30.06,29.80,16,1,16,0.00
2013-10-28,62.6,43.8,30.0,37.8,32.5,27.5,93,68,36,30.22,30.05,11,1,11,0.00
2013-10-29,61.8,46.3,35.6,41.0,35.8,30.1,88,69,42,30.32,30.21,7,0,8,0.00
2013-10-30,59.9,48.8,38.0,51.6,44.9,35.1,95,87,72,30.26,30.09,8,0,8,0.00
2013-10-31,66.3,58.2,48.6,62.0,54.7,46.9,98,89,71,30.13,29.69,19,1,19,0.04
2013-11-1,70.1,62.6,51.7,62.9,56.7,49.4,95,82,58,29.70,29.46,30,4,30,0.06
2013-11-2,66.9,54.5,46.0,50.8,44.3,37.3,97,71,41,29.72,29.54,13,1,13,0.04
2013-11-3,52.2,43.6,31.8,41.5,30.6,18.7,87,62,35,30.37,29.72,12,2,12,0.00
2013-11-4,47.3,35.1,26.0,25.0,19.5,13.5,79,55,27,30.57,30.37,15,1,15,0.40
2013-11-5,57.6,44.2,30.1,41.8,34.5,24.1,87,69,51,30.56,30.39,9,0,9,0.08
2013-11-6,66.1,54.0,43.3,50.6,45.8,40.0,89,75,52,30.40,29.97,12,1,12,0.00
2013-11-7,59.8,51.9,39.5,56.1,48.2,34.5,94,87,73,29.98,29.71,15,2,15,0.22
2013-11-8,49.2,40.6,31.8,34.5,28.0,24.8,81,62,43,30.17,29.89,20,2,20,0.00
2013-11-9,51.0,38.5,27.0,32.6,27.1,23.4,88,66,37,30.24,29.90,13,1,13,0.00
2013-11-10,58.3,45.0,31.9,37.0,30.0,25.7,85,59,34,30.02,29.80,26,4,26,0.00
2013-11-11,53.8,46.1,33.2,35.2,29.9,24.8,75,54,42,30.15,29.88,15,3,15,0.00
2013-11-12,49.6,35.7,23.3,35.7,22.0,13.4,76,58,41,30.26,29.85,18,2,18,0.00
2013-11-13,40.5,30.3,22.9,18.4,14.5,10.0,73,53,34,30.34,30.22,18,2,18,0.00
2013-11-14,53.9,37.6,24.2,24.6,17.7,11.8,76,49,20,30.23,30.11,18,2,18,0.00
2013-11-15,56.6,40.7,28.2,32.6,27.1,22.2,85,62,28,30.17,30.08,7,0,7,0.00
2013-11-16,60.2,48.5,39.9,46.7,42.0,32.2,93,79,54,30.25,30.16,7,0,7,0.06
2013-11-17,65.3,56.5,48.6,57.6,51.7,46.3,96,85,67,30.17,29.66,13,1,13,0.00
2013-11-18,64.7,57.6,47.1,60.4,39.1,24.1,95,54,27,29.76,29.54,21,5,21,0.56
2013-11-19,47.3,41.4,30.6,27.8,24.0,19.8,65,50,41,30.28,29.75,20,3,20,0.00
2013-11-20,46.1,34.7,27.2,21.8,15.9,6.7,73,49,21,30.50,30.27,10,1,10,0.00
2013-11-21,51.9,39.9,26.1,39.3,28.0,14.7,76,62,52,30.51,30.30,5,0,10,0.00
2013-11-22,55.9,50.4,46.1,49.7,45.7,39.1,96,84,73,30.30,29.86,11,1,11,0.08
2013-11-23,51.4,40.0,27.8,47.8,25.3,8.3,95,56,37,30.00,29.87,23,4,23,0.00
2013-11-24,29.4,24.3,19.2,9.0,1.7,-2.3,48,37,27,30.35,30.00,24,4,24,0.00
2013-11-25,35.2,26.0,15.9,16.3,10.9,5.0,74,53,37,30.44,30.25,12,2,12,0.00
2013-11-26,44.3,34.1,30.7,43.7,26.4,15.9,98,75,48,30.25,29.56,13,2,13,1.54
2013-11-27,60.5,41.0,30.4,60.2,37.2,17.8,99,87,55,29.76,29.32,25,4,25,2.02
2013-11-28,36.2,29.8,26.1,20.0,16.1,13.4,70,57,41,30.39,29.75,21,4,21,0.02
2013-11-29,38.6,29.0,20.2,21.7,18.1,15.2,87,64,46,30.65,30.38,12,1,12,0.00
2013-11-30,38.0,28.3,17.7,26.4,19.1,11.5,78,68,57,30.65,30.28,7,1,11,0.00
2013-12-1,45.7,36.2,25.1,30.8,27.3,22.3,91,71,51,30.29,29.93,9,0,9,0.00
2013-12-2,50.5,40.2,35.8,35.0,31.3,28.2,81,71,52,29.93,29.79,5,0,5,0.00
2013-12-3,52.8,41.4,32.1,39.2,33.5,28.7,88,74,48,29.92,29.79,8,0,8,0.00
2013-12-4,51.3,42.3,30.6,43.1,36.2,27.9,94,80,63,30.03,29.92,6,0,6,0.00
2013-12-5,57.5,51.7,46.2,56.9,50.6,43.0,98,96,86,30.01,29.83,11,0,11,0.00
2013-12-6,60.5,46.7,35.5,60.2,45.2,33.5,99,95,88,30.07,29.77,14,1,14,1.54
2013-12-7,39.2,33.9,28.4,34.0,28.0,19.6,93,79,62,30.43,30.00,19,2,19,0.10
2013-12-8,28.5,26.5,23.9,26.6,20.0,15.0,93,77,60,30.51,30.23,9,1,9,0.00
2013-12-9,34.7,32.8,28.5,33.9,31.8,26.7,98,96,93,30.25,29.92,9,1,9,0.78
2013-12-10,32.7,29.0,17.8,31.9,27.2,14.1,98,93,81,30.09,29.84,10,1,10,0.14
2013-12-11,30.9,22.0,12.8,17.9,14.5,9.4,89,74,54,30.28,30.09,15,2,15,0.06
2013-12-12,26.1,20.5,12.9,18.6,9.7,4.1,85,64,40,30.30,30.09,18,2,18,0.00
2013-12-13,34.6,25.2,14.3,19.2,11.8,4.1,77,57,43,30.25,30.07,20,3,20,0.02
2013-12-14,30.0,26.4,23.3,28.5,21.3,18.1,95,81,67,30.34,29.61,16,3,16,0.00
2013-12-15,37.9,31.8,26.7,32.6,26.1,19.2,95,80,59,29.78,29.47,16,2,19,0.80
2013-12-16,30.4,23.9,15.9,20.8,10.0,6.4,73,56,40,30.15,29.78,20,3,20,0.00
2013-12-17,28.2,22.6,17.7,24.0,17.9,12.2,88,82,67,30.12,29.87,8,0,8,0.00
2013-12-18,35.5,25.6,16.1,21.7,17.6,12.9,90,72,51,30.12,29.87,11,2,19,0.18
2013-12-19,46.0,30.8,16.7,28.2,22.1,13.0,89,71,48,30.12,29.96,10,1,10,0.58
2013-12-20,53.2,39.9,29.4,35.5,29.3,25.5,87,68,42,30.01,29.89,10,1,10,0.14
2013-12-21,63.4,48.5,35.9,55.1,43.4,33.0,96,83,62,29.92,29.80,14,1,14,0.00
2013-12-22,67.3,62.5,58.1,61.6,57.9,54.5,91,85,77,29.86,29.70,27,4,27,0.06
2013-12-23,59.2,52.7,39.2,58.3,49.7,28.7,98,90,65,30.08,29.81,12,1,12,1.38
2013-12-24,39.2,36.0,34.0,29.2,25.1,23.4,68,64,61,30.10,30.07,13,2,13,0.00
2013-12-25,27.2,23.3,17.3,13.6,8.7,4.7,61,53,44,30.46,30.30,9,1,15,0.00
2013-12-26,36.3,26.7,19.7,27.8,20.1,12.7,86,76,58,30.33,30.10,13,1,13,0.00
2013-12-27,43.2,29.0,19.9,23.1,19.6,16.4,88,70,40,30.29,30.19,14,1,14,0.00
2013-12-28,56.0,38.1,21.8,29.0,24.0,18.0,86,60,31,30.21,29.99,14,2,14,0.00
2013-12-29,42.9,39.9,37.6,40.5,34.4,26.5,97,82,59,30.00,29.36,13,1,13,1.70
2013-12-30,43.1,35.5,24.1,39.5,28.2,12.7,97,76,56,30.08,29.65,16,2,16,0.00
2013-12-31,33.7,25.9,18.4,24.8,15.0,10.2,76,63,49,30.18,29.98,18,2,18,0.00
2014-1-1,35.2,27.8,19.2,21.8,17.0,9.9,76,64,54,30.33,30.11,8,0,9,0.00
2014-1-2,30.0,26.0,15.6,23.0,20.2,11.2,89,79,65,30.10,29.57,15,3,15,0.00